Weather History for Paris, TX

Change the Weather History Date:

Wednesday, September 26, 2012

  Actual Average Record
Temperature  
Mean Temperature 83 °F -  
Max Temperature 93 °F 80 °F 93 °F (2005)
Min Temperature 73 °F 58 °F 44 °F (2000)
Cooling Degree Days 18    
Growing Degree Days 33 (Base 50)    
Moisture  
Dew Point 50 °F    
Average Humidity 38    
Maximum Humidity 69    
Minimum Humidity 13    
Precipitation  
Precipitation 0.00 in - - ()
Sea Level Pressure  
Sea Level Pressure 30.01 in    
Wind  
Wind Speed 13 mph (South)    
Max Wind Speed 26 mph    
Max Gust Speed 33 mph    
Visibility 10 miles    
Events      
Averages and records for this station are not official NWS values.
T = Trace of Precipitation, MM = Missing Value Source: NWS Daily Summary

Daily Weather History Graph

Daily Weather History Graph

Search for Another Location

Airport:

Trip Planner

Search our weather history database for the weather conditions in past years. The results will help you decide how hot, cold, wet, or windy it might be!

Date:

Astronomy

Sep. 26, 2012 Rise Set
Actual Time 7:13 AM CDT 7:12 PM CDT
Civil Twilight 6:48 AM CDT 7:37 PM CDT
Nautical Twilight 6:19 AM CDT 8:05 PM CDT
Astronomical Twilight 5:50 AM CDT 8:35 PM CDT
Moon 5:05 PM CDT (9/26) 3:48 AM CDT (9/26)
Length of Visible Light 12h 48m
Length of Day
11h 59m
Waxing Gibbous, 88% of the Moon is Illuminated
Sep 26
Waxing Gibbous
Sep 29
Full
Oct 8
Last Quarter
Oct 15
New
Oct 21
First Quarter

Hourly Weather History & Observations

Time (CDT) Temp. Heat Index Dew Point Humidity Pressure Visibility Wind Dir Wind Speed Gust Speed Precip Events Conditions
12:15 AM 78.8 °F - 64.4 °F 61% 29.96 in 10.0 mi South 13.8 mph 19.6 mph N/A   Clear
12:35 AM 78.8 °F - 64.4 °F 61% 29.97 in 10.0 mi South 13.8 mph - N/A   Clear
12:55 AM 78.8 °F - 64.4 °F 61% 29.97 in 10.0 mi South 15.0 mph 18.4 mph N/A   Clear
1:15 AM 78.8 °F - 64.4 °F 61% 29.97 in 10.0 mi South 13.8 mph 19.6 mph N/A   Clear
1:35 AM 78.8 °F - 64.4 °F 61% 29.97 in 10.0 mi South 12.7 mph - N/A   Clear
1:55 AM 77.0 °F - 64.4 °F 65% 29.98 in 10.0 mi South 12.7 mph - N/A   Clear
2:15 AM 77.0 °F - 59.0 °F 54% 29.99 in 10.0 mi SSW 11.5 mph - N/A   Clear
2:35 AM 77.0 °F - 59.0 °F 54% 29.99 in 10.0 mi SSW 10.4 mph - N/A   Clear
3:15 AM 75.2 °F - 60.8 °F 61% 30.00 in 10.0 mi South 8.1 mph - N/A   Overcast
3:35 AM 75.2 °F - 59.0 °F 57% 30.00 in 10.0 mi South 9.2 mph - N/A   Mostly Cloudy
3:55 AM 75.2 °F - 59.0 °F 57% 30.00 in 10.0 mi South 10.4 mph - N/A   Scattered Clouds
4:15 AM 75.2 °F - 59.0 °F 57% 30.00 in 10.0 mi South 12.7 mph 17.3 mph N/A   Scattered Clouds
4:35 AM 75.2 °F - 59.0 °F 57% 30.02 in 10.0 mi West 8.1 mph - N/A   Mostly Cloudy
4:55 AM 75.2 °F - 59.0 °F 57% 30.02 in 10.0 mi SSW 8.1 mph - N/A   Overcast
5:15 AM 75.2 °F - 59.0 °F 57% 30.02 in 10.0 mi SW 8.1 mph - N/A   Overcast
5:35 AM 75.2 °F - 60.8 °F 61% 30.01 in 10.0 mi South 10.4 mph - N/A   Scattered Clouds
5:55 AM 73.4 °F - 60.8 °F 65% 30.00 in 10.0 mi South 12.7 mph - N/A   Clear
6:15 AM 73.4 °F - 60.8 °F 65% 29.99 in 10.0 mi South 13.8 mph - N/A   Clear
6:35 AM 73.4 °F - 60.8 °F 65% 29.99 in 10.0 mi South 16.1 mph 21.9 mph N/A   Clear
6:55 AM 73.4 °F - 60.8 °F 65% 30.03 in 10.0 mi WSW 8.1 mph - N/A   Clear
7:35 AM 73.4 °F - 62.6 °F 69% 30.05 in 10.0 mi SW 8.1 mph - N/A   Overcast
7:55 AM 73.4 °F - 62.6 °F 69% 30.05 in 10.0 mi SSW 10.4 mph - N/A   Mostly Cloudy
8:15 AM 73.4 °F - 60.8 °F 65% 30.05 in 10.0 mi SSW 10.4 mph - N/A   Partly Cloudy
8:35 AM 75.2 °F - 60.8 °F 61% 30.05 in 10.0 mi SSW 13.8 mph - N/A   Scattered Clouds
8:55 AM 75.2 °F - 60.8 °F 61% 30.06 in 10.0 mi South 12.7 mph - N/A   Partly Cloudy
9:15 AM 75.2 °F - 60.8 °F 61% 30.05 in 10.0 mi SSW 18.4 mph 21.9 mph N/A   Mostly Cloudy
9:35 AM 78.8 °F - 59.0 °F 51% 30.04 in 10.0 mi SSW 12.7 mph 19.6 mph N/A   Mostly Cloudy
9:55 AM 80.6 °F 80.8 °F 57.2 °F 45% 30.03 in 10.0 mi SSW 17.3 mph 23.0 mph N/A   Mostly Cloudy
10:15 AM 80.6 °F - 24.8 °F 13% 30.02 in 10.0 mi South 23.0 mph 28.8 mph N/A   Scattered Clouds
10:35 AM 82.4 °F 81.7 °F 55.4 °F 39% 30.03 in 10.0 mi SSW 26.5 mph 33.4 mph N/A   Scattered Clouds
10:55 AM 82.4 °F - 51.8 °F 35% 30.03 in 10.0 mi SSW 25.3 mph 31.1 mph N/A   Partly Cloudy
11:15 AM 84.2 °F - 48.2 °F 29% 30.03 in 10.0 mi SSW 26.5 mph 31.1 mph N/A   Partly Cloudy
11:35 AM 84.2 °F - 41.0 °F 22% 30.03 in 10.0 mi SSW 18.4 mph 23.0 mph N/A   Partly Cloudy
11:55 AM 86.0 °F - 35.6 °F 17% 30.03 in 10.0 mi SSW 21.9 mph 28.8 mph N/A   Clear
12:15 PM 87.8 °F - 33.8 °F 15% 30.03 in 10.0 mi SW 19.6 mph 24.2 mph N/A   Clear
12:35 PM 87.8 °F - 44.6 °F 22% 30.03 in 10.0 mi SSW 17.3 mph 21.9 mph N/A   Clear
12:55 PM 87.8 °F - 39.2 °F 18% 30.02 in 10.0 mi SSW 11.5 mph 21.9 mph N/A   Partly Cloudy
1:15 PM 89.6 °F - 35.6 °F 15% 30.02 in 10.0 mi SW 10.4 mph 18.4 mph N/A   Clear
1:35 PM 89.6 °F - 37.4 °F 16% 30.01 in 10.0 mi SSW 12.7 mph 20.7 mph N/A   Clear
1:55 PM 89.6 °F - 41.0 °F 18% 30.00 in 10.0 mi SW 12.7 mph 21.9 mph N/A   Partly Cloudy
2:15 PM 91.4 °F - 42.8 °F 18% 30.00 in 10.0 mi SSW 10.4 mph 21.9 mph N/A   Partly Cloudy
2:35 PM 91.4 °F - 42.8 °F 18% 29.99 in 10.0 mi SW 18.4 mph - N/A   Partly Cloudy
2:55 PM 91.4 °F - 39.2 °F 16% 29.99 in 10.0 mi SW 17.3 mph 21.9 mph N/A   Clear
3:15 PM 91.4 °F - 35.6 °F 14% 29.98 in 10.0 mi SW 15.0 mph 18.4 mph N/A   Partly Cloudy
3:35 PM 91.4 °F - 44.6 °F 20% 29.98 in 10.0 mi South 12.7 mph - N/A   Clear
3:55 PM 93.2 °F - 42.8 °F 17% 29.97 in 10.0 mi SW 13.8 mph 20.7 mph N/A   Clear
4:15 PM 93.2 °F - 46.4 °F 20% 29.97 in 10.0 mi South 16.1 mph 19.6 mph N/A   Partly Cloudy
4:35 PM 91.4 °F - 48.2 °F 23% 29.97 in 10.0 mi South 10.4 mph 17.3 mph N/A   Partly Cloudy
4:55 PM 91.4 °F - 46.4 °F 21% 29.97 in 10.0 mi SSW 9.2 mph - N/A   Partly Cloudy
5:15 PM 91.4 °F - 41.0 °F 17% 29.98 in 10.0 mi South 15.0 mph - N/A   Scattered Clouds
5:35 PM 91.4 °F - 42.8 °F 18% 29.98 in 10.0 mi South 9.2 mph - N/A   Scattered Clouds
5:55 PM 89.6 °F - 35.6 °F 15% 29.98 in 10.0 mi South 12.7 mph 19.6 mph N/A   Clear
6:15 PM 89.6 °F - 41.0 °F 18% 29.97 in 10.0 mi South 12.7 mph - N/A   Clear
6:35 PM 87.8 °F - 41.0 °F 19% 29.98 in 10.0 mi SSE 11.5 mph - N/A   Clear
6:55 PM 86.0 °F - 39.2 °F 19% 29.98 in 10.0 mi SSE 9.2 mph - N/A   Clear
7:15 PM 84.2 °F - 39.2 °F 20% 29.98 in 10.0 mi SSE 9.2 mph - N/A   Clear
7:35 PM 82.4 °F - 39.2 °F 21% 29.99 in 10.0 mi SSE 9.2 mph - N/A   Clear
7:55 PM 80.6 °F - 35.6 °F 20% 30.00 in 10.0 mi SSE 8.1 mph - N/A   Clear
8:35 PM 78.8 °F - 41.0 °F 26% 30.02 in 10.0 mi SE 8.1 mph - N/A   Clear
8:55 PM 78.8 °F - 39.2 °F 24% 30.03 in 10.0 mi ESE 8.1 mph - N/A   Clear
9:15 PM 78.8 °F - 41.0 °F 26% 30.04 in 10.0 mi ESE 8.1 mph - N/A   Clear
9:35 PM 77.0 °F - 42.8 °F 29% 30.05 in 10.0 mi ESE 8.1 mph - N/A   Clear
9:55 PM 75.2 °F - 44.6 °F 34% 30.05 in 10.0 mi SE 8.1 mph - N/A   Clear
10:15 PM 75.2 °F - 48.2 °F 38% 30.05 in 10.0 mi SSE 9.2 mph - N/A   Clear
10:35 PM 75.2 °F - 48.2 °F 38% 30.05 in 10.0 mi SSE 9.2 mph - N/A   Clear
11:15 PM 75.2 °F - 48.2 °F 38% 30.05 in 10.0 mi SSE 9.2 mph - N/A   Clear
11:35 PM 75.2 °F - 50.0 °F 41% 30.06 in 10.0 mi SSE 10.4 mph - N/A   Clear
11:55 PM 75.2 °F - 48.2 °F 38% 30.06 in 7.0 mi SSE 8.1 mph - N/A   Clear